User: anonymous   Login
Location: Ettringen
(48.1054°N, 10.6545°E)
Time: 07:09:19
(UTC+00:00)
Language:

Spot 4 Rocket - Orbit

View from above orbital plane
View from above orbital plane
View from above satellite
View from above satellite

Ground track
Ground track

The orbit is defined by the following mean orbital elements,

1 25261U          26017.68151727 +.00000000 +00000-0 +14120-3 0 00003
2 25261  98.8310  45.0280 0003154 193.2604 166.8499 14.36211300    08
Epoch (UTC): 17 January 2026 16:21:23
Eccentricity: 0.0003154
inclination: 98.8310°
perigee height: 769 km
apogee height: 773 km
right ascension of ascending node: 45.0280°
argument of perigee: 193.2604°
revolutions per day: 14.36211300
mean anomaly at epoch: 166.8499°

The dashed part of the orbit path shows where the satellite is in the earth's shadow,  

DLR